Wind_Speed
12 13 12 12 12 12 11 11 10 10 9 9 9 9 8 4 2 2 4 3 2 6 11 9 7 6 4 6 7 4 4 5 4 4 4 4 3 2 1 2 3 4 5 5 6 7 8 9 11 12 12 12 12 12 12 11 11 9 8 9 10 12 13 13 14 15 15 13 10 11 16 21 22 20 19 19 21 22 21 20 19 20 19 18 18 18 18
12 13 12 12 13 12 11 9 9 11 13 12 10 9 10 9 6 5 7 6 2 4 10 10 7 7 5 5 6 6 6 6 5 3 3 3 2 1 1 3 4 4 5 5 6 8 9 9 10 11 11 12 13 13 13 12 12 11 9 9 10 12 13 14 15 17 18 15 8 9 16 19 21 22 20 18 19 20 22 21 19 18 19 18 18 17 17
10 11 10 12 14 12 9 9 11 12 12 12 9 7 7 8 7 5 5 7 4 4 9 10 7 6 6 6 6 6 6 6 5 3 3 3 2 1 2 4 4 4 4 5 6 8 9 10 11 10 10 12 12 13 13 13 13 13 12 11 11 11 12 14 16 16 18 17 12 13 19 20 20 21 21 20 18 17 18 21 21 19 17 17 17 18 17
8 9 10 13 12 10 10 11 12 12 10 8 8 4 5 6 6 5 5 5 5 6 9 10 8 6 6 7 7 6 5 5 4 3 3 3 2 2 3 3 3 3 4 5 6 8 9 10 11 11 11 12 12 12 14 14 15 15 14 13 13 12 12 14 15 15 16 17 17 17 20 21 18 19 21 21 19 17 14 14 17 19 18 18 17 18 18
8 10 13 13 10 9 10 9 8 9 8 7 8 7 5 5 5 4 3 5 6 8 9 9 8 6 5 6 7 6 6 5 4 3 3 3 3 3 3 2 3 3 4 6 6 8 10 10 10 10 11 12 12 13 14 14 15 15 15 14 15 14 14 14 15 13 14 17 20 20 20 20 17 19 24 25 22 20 16 11 10 11 12 15 18 19 19
7 10 13 11 9 8 5 2 3 6 6 6 8 9 6 4 3 5 9 10 10 8 8 8 7 4 5 7 7 6 5 5 4 4 3 3 4 3 2 2 4 4 4 6 7 8 9 10 10 10 11 12 11 11 12 13 13 14 15 14 14 14 15 15 14 14 14 16 19 19 19 20 19 19 24 26 22 19 16 12 11 11 11 12 14 16 18
6 8 10 9 8 7 4 1 3 5 7 6 6 7 7 4 4 10 12 11 10 7 6 9 8 6 9 9 7 6 4 3 5 5 4 4 4 3 2 3 3 3 4 5 7 8 9 9 10 10 10 11 11 11 11 12 12 13 14 14 14 16 18 17 14 14 15 16 16 17 17 18 18 17 18 19 17 14 13 13 16 19 18 15 13 13 15
6 7 8 6 6 5 3 4 4 3 6 6 5 5 5 1 2 7 9 8 9 7 5 9 9 7 8 7 5 5 4 3 4 4 4 5 4 3 2 2 2 3 4 5 6 7 8 9 10 10 11 11 11 12 11 11 12 12 13 14 15 16 18 19 17 15 15 15 15 15 15 14 14 16 16 14 14 17 19 18 17 17 18 19 18 16 15
6 8 8 5 5 5 3 5 6 4 4 5 4 5 3 1 2 2 8 8 8 8 7 9 8 6 6 6 5 6 5 5 5 5 6 6 4 3 2 1 3 4 3 3 5 7 8 9 10 10 11 11 11 12 11 10 11 12 12 13 13 14 15 17 18 18 16 14 14 13 13 12 11 14 17 15 15 20 22 19 17 16 16 17 19 20 17
5 7 8 6 7 6 4 6 7 6 6 6 5 4 2 1 3 3 8 9 8 8 8 8 8 5 5 4 5 6 6 6 6 7 6 4 3 3 2 3 5 5 4 4 4 6 7 9 10 10 10 10 11 11 11 12 12 12 12 12 13 13 14 15 16 16 17 15 13 11 10 11 11 14 18 20 20 22 22 20 20 20 18 17 19 21 19
4 6 8 7 7 5 5 7 8 7 8 6 5 4 4 0 2 1 7 9 8 8 9 8 6 5 5 3 5 7 7 7 6 7 5 3 3 4 4 6 8 6 4 3 3 5 7 9 10 11 10 10 10 11 12 12 12 11 11 12 13 13 13 15 15 14 14 13 9 7 8 9 12 14 17 20 19 18 18 19 22 24 22 19 18 19 18
7 7 8 6 5 4 3 8 11 10 9 7 4 5 6 2 2 2 4 8 8 9 9 7 5 5 2 3 7 8 8 7 5 5 5 3 2 2 4 6 6 4 3 3 4 5 7 8 10 11 11 10 11 12 11 10 10 11 11 11 12 12 12 13 14 13 13 13 11 6 3 4 8 9 10 14 16 15 14 14 17 23 25 20 14 12 12
9 8 8 6 4 3 4 8 11 8 5 7 6 4 4 5 2 1 6 8 8 8 7 4 3 1 3 7 10 10 9 8 6 5 6 4 3 3 6 6 3 2 3 3 4 5 8 10 10 11 11 11 11 11 10 10 11 11 11 10 11 12 13 13 13 14 13 12 13 12 8 3 1 2 3 7 10 12 14 15 16 19 20 17 13 12 13
9 8 8 7 4 4 5 8 8 4 4 5 3 2 5 6 5 4 7 8 8 8 6 3 4 7 8 10 11 10 9 8 7 7 6 3 4 8 9 7 4 2 1 3 5 8 10 11 10 10 10 10 10 10 10 11 11 10 9 10 11 11 13 13 14 16 16 15 15 14 13 10 8 6 4 1 3 7 11 14 15 16 16 14 13 12 11
7 7 9 8 4 5 10 11 8 5 3 2 5 5 5 4 2 3 7 8 7 7 7 6 9 10 10 10 9 8 9 8 7 7 6 3 5 9 9 7 6 5 4 6 10 10 9 9 8 8 9 10 10 10 10 11 11 10 10 11 13 13 13 14 15 16 17 17 17 17 15 14 14 13 10 7 7 8 11 13 15 16 16 14 12 11 9
7 8 7 4 0 6 12 10 6 6 4 4 6 6 4 4 3 3 7 8 6 7 9 9 10 10 9 9 9 8 9 9 7 7 7 5 7 9 8 8 8 6 4 5 9 9 8 8 7 7 10 11 10 10 11 10 10 10 10 11 13 14 14 15 18 18 18 19 19 19 19 17 17 16 15 13 13 12 13 16 18 18 17 17 16 14 12
6 2 1 3 3 4 9 6 5 3 3 3 5 5 4 5 4 3 6 8 9 10 11 10 10 9 9 9 10 9 9 9 8 8 8 7 8 8 8 7 6 4 4 6 9 9 9 9 9 10 11 11 10 10 10 10 10 10 10 10 11 12 13 15 16 17 18 19 20 21 21 21 20 19 18 16 15 15 17 19 19 20 20 21 22 21 19
4 2 4 4 3 1 3 6 7 2 3 3 4 4 5 5 5 4 5 7 9 11 12 10 10 9 10 10 10 10 10 10 9 8 8 9 9 8 8 7 6 6 6 8 9 10 10 10 11 13 13 11 10 10 9 10 12 11 10 10 11 12 14 15 17 17 17 17 18 19 21 22 23 21 20 19 18 17 18 20 21 22 23 23 22 23 22
3 2 3 2 2 1 2 4 6 5 4 2 2 3 3 5 6 6 6 8 11 11 11 11 10 11 11 11 11 10 10 10 9 8 9 10 9 8 8 8 7 9 9 9 9 10 10 10 11 12 13 11 10 9 10 11 13 12 12 12 12 13 15 16 18 19 19 18 18 20 22 23 24 24 23 22 21 20 18 19 21 21 22 21 21 21 22
6 3 2 3 1 2 3 4 4 3 4 2 6 6 3 8 9 7 7 8 10 11 10 11 11 11 12 12 11 10 9 8 8 9 10 11 10 9 9 9 9 10 11 10 11 11 11 11 11 10 10 9 9 10 10 10 11 11 12 13 14 15 16 17 18 20 20 19 20 23 26 27 26 25 25 25 24 21 18 17 18 20 21 21 20 21 22
7 4 2 2 1 2 5 5 4 2 2 4 6 6 2 10 10 7 6 6 8 10 10 12 12 11 12 13 12 11 9 7 8 10 11 11 11 10 10 11 11 12 12 12 12 12 11 11 11 11 10 10 10 11 10 9 10 9 8 10 13 15 15 16 18 19 20 20 20 21 24 27 27 26 25 24 24 22 19 18 19 21 23 22 21 22 23
4 2 1 5 4 1 3 5 7 5 4 6 5 3 6 9 7 6 6 7 9 11 11 11 12 11 11 12 13 11 10 9 10 13 13 12 12 12 11 12 12 13 13 13 13 13 12 11 11 11 10 10 10 10 10 10 12 12 10 10 12 14 15 15 16 18 19 20 20 18 18 21 25 28 26 24 24 23 22 21 21 23 26 25 25 27 28
2 2 4 6 6 2 2 4 5 7 7 8 8 7 7 7 5 4 8 10 10 11 11 11 13 12 10 12 13 11 10 12 14 14 14 13 13 13 13 13 13 13 13 13 13 13 12 11 11 11 11 11 11 10 10 11 12 13 13 13 14 15 15 15 15 17 19 19 18 18 18 19 23 27 29 29 28 26 25 25 25 26 28 28 28 29 31
2 2 3 5 5 5 7 9 3 6 9 7 7 6 5 7 7 7 10 11 11 11 11 11 14 13 12 13 13 12 12 14 15 15 14 15 14 14 13 13 14 14 14 13 12 12 11 10 10 10 11 13 14 13 11 12 13 13 13 14 15 14 15 15 15 16 18 19 18 18 18 18 20 23 27 30 31 29 27 26 26 27 28 28 28 28 28
2 0 2 2 2 4 6 6 4 4 4 3 5 5 5 8 9 10 9 9 10 11 11 11 13 15 14 13 14 14 14 15 16 16 16 15 14 14 14 14 14 14 13 12 11 11 10 9 8 7 8 10 14 14 13 13 14 13 13 14 14 14 14 15 15 15 16 16 18 19 18 18 19 19 20 23 26 27 28 27 27 26 25 24 24 24 23
1 2 2 2 3 4 4 2 2 0 1 0 2 5 6 7 8 9 8 8 9 11 11 11 12 15 15 14 16 17 16 16 16 17 17 15 14 15 15 14 14 14 12 11 11 11 10 8 6 5 5 7 9 11 12 13 15 15 14 13 13 14 14 14 14 15 15 15 17 19 19 19 19 19 19 19 20 21 22 22 23 24 23 22 21 21 21
3 4 3 1 3 1 1 2 1 3 3 1 2 2 6 7 7 7 6 7 8 10 11 12 14 15 14 15 17 18 18 18 17 16 16 15 15 15 15 15 15 14 12 12 12 11 9 7 5 5 6 8 9 10 11 12 13 14 14 13 12 12 13 13 13 14 15 15 15 17 19 21 20 20 20 19 19 18 17 17 18 20 21 22 21 21 22
5 5 4 2 3 3 2 4 1 3 1 1 3 4 4 7 9 7 6 7 7 7 9 13 15 14 14 15 17 18 18 18 17 15 15 16 15 15 16 16 15 14 13 12 12 10 8 6 5 6 7 6 7 8 8 9 10 11 11 11 11 11 11 13 13 13 13 14 14 14 16 18 19 20 20 20 19 19 18 18 18 18 19 21 21 20 20
5 4 4 2 5 6 4 4 4 2 2 5 7 7 7 8 8 7 6 7 6 4 6 11 14 14 14 16 17 17 17 17 17 16 15 16 16 16 17 16 15 14 13 13 11 10 9 7 6 7 7 8 7 7 7 6 8 10 10 10 12 11 11 11 12 12 12 13 14 13 14 15 16 17 19 20 19 18 17 17 16 16 17 18 17 17 17
5 4 5 5 6 8 6 5 4 6 6 7 7 8 10 10 8 6 6 7 6 4 6 9 11 13 15 16 17 18 18 17 17 16 16 16 17 17 17 17 15 13 13 12 12 11 10 7 6 6 6 10 11 9 7 7 9 10 12 14 15 14 12 10 11 11 11 11 12 13 15 16 15 15 16 17 17 17 16 16 15 15 15 14 14 14 16
6 6 6 6 6 7 6 5 4 5 7 7 8 8 7 7 8 7 4 3 3 4 6 8 10 12 14 16 17 18 19 18 17 16 16 16 17 18 18 17 14 13 13 13 13 12 11 9 7 4 6 10 13 11 9 9 8 7 9 14 15 14 13 11 9 10 10 10 11 12 12 13 15 16 16 15 15 15 15 15 14 14 14 14 13 13 14
8 8 8 7 7 8 6 5 5 5 5 6 7 7 4 4 5 5 3 3 3 4 4 5 10 12 14 16 18 18 18 18 18 16 16 17 17 18 18 16 14 13 14 14 14 13 11 11 9 5 5 7 10 9 6 6 7 7 6 10 10 10 10 7 5 7 8 9 10 12 12 12 14 15 15 14 14 15 15 15 14 14 15 14 14 12 12
8 8 8 8 7 9 8 7 7 7 7 7 7 6 4 5 4 4 4 4 5 6 7 11 10 13 16 17 18 17 16 16 15 14 15 16 17 17 17 15 14 15 15 14 14 13 12 11 10 8 7 6 5 6 4 2 5 8 6 7 7 7 6 4 4 6 6 6 7 9 10 11 13 14 14 13 12 12 14 14 13 13 14 15 14 13 12
9 8 8 7 6 6 6 6 7 7 5 4 4 5 5 5 5 5 5 4 6 7 4 16 13 13 18 17 17 17 16 13 11 11 13 14 15 17 17 15 14 15 15 14 13 12 12 11 10 9 8 7 5 5 5 3 1 5 7 7 7 5 4 5 5 5 5 6 6 6 5 6 9 12 15 14 12 11 12 13 13 13 14 14 14 13 11
9 9 9 8 6 6 6 5 6 7 6 5 5 5 6 6 5 7 7 5 8 13 9 17 18 14 18 17 17 18 17 14 12 13 15 15 15 17 18 17 16 15 14 13 13 12 12 12 11 10 9 8 6 6 5 4 4 3 4 5 6 5 4 4 5 4 5 9 8 5 4 3 4 6 8 10 12 13 12 12 14 15 14 12 12 12 10
10 10 8 7 7 8 8 7 6 5 6 7 4 4 4 7 9 10 10 11 15 18 13 16 21 17 17 17 17 18 17 16 15 15 15 15 16 18 18 17 16 17 15 13 12 12 12 12 12 11 10 9 8 7 6 5 6 6 6 6 6 6 6 6 8 3 5 6 6 7 8 5 4 4 3 3 6 8 9 10 14 15 13 12 11 10 9
9 9 7 6 7 9 8 8 8 7 6 11 10 8 8 10 12 13 14 16 18 19 13 17 21 16 15 16 17 17 16 16 17 17 16 15 16 18 18 17 17 17 14 13 13 13 12 13 14 12 10 9 9 9 8 7 6 6 6 6 6 7 7 6 4 2 4 3 3 8 9 7 7 8 7 5 5 4 4 6 11 13 13 11 11 10 10
8 8 9 8 7 8 9 9 10 10 8 14 17 16 15 13 12 11 11 14 17 19 15 18 22 17 16 16 16 16 16 17 18 18 17 17 18 18 17 16 17 16 14 14 15 14 13 14 15 13 10 9 9 10 10 9 7 7 7 7 5 5 5 5 4 5 5 4 2 5 5 6 6 7 8 9 9 8 5 4 6 11 14 14 11 10 11
7 7 9 9 8 9 10 10 10 11 10 11 14 13 13 13 12 10 9 12 16 19 15 19 21 16 17 16 15 16 17 18 19 19 18 19 20 18 16 15 17 16 14 15 17 15 13 14 15 13 11 10 9 10 12 12 10 9 8 8 6 5 5 5 5 5 5 4 3 3 4 5 5 5 6 7 7 8 7 5 5 7 12 14 12 9 9
5 5 7 8 8 8 8 8 11 13 12 12 13 13 13 14 13 11 10 13 16 18 15 20 19 15 16 16 16 17 18 18 19 20 19 19 18 16 13 14 16 16 16 17 17 16 15 14 13 12 11 10 9 10 13 14 13 12 10 9 9 8 8 7 6 6 6 6 6 6 7 6 6 7 7 7 5 5 7 7 8 7 9 11 12 10 8
3 2 3 5 7 7 7 8 10 9 7 9 12 13 13 14 14 12 12 15 17 17 17 22 20 16 16 18 18 18 18 19 20 21 20 19 18 15 12 13 15 17 18 18 17 16 16 14 12 11 11 9 8 10 12 14 14 13 12 11 10 9 8 7 7 6 6 6 6 6 6 5 5 5 5 5 5 3 3 6 8 6 6 9 14 13 9
4 3 3 4 6 6 7 8 6 3 0 1 6 11 12 14 15 13 12 12 14 15 20 25 21 18 18 19 19 19 18 18 20 22 22 21 19 16 14 14 18 20 20 19 18 17 16 14 12 11 11 11 9 9 11 13 14 12 10 8 9 8 7 7 7 6 6 6 6 6 6 5 4 4 4 4 5 4 4 5 6 4 4 5 11 12 11
4 4 4 5 4 4 4 4 2 4 1 6 7 7 11 12 13 12 9 8 10 16 22 23 20 19 19 19 19 19 18 17 19 20 19 19 19 18 16 17 21 22 21 21 20 17 15 14 13 12 12 12 12 11 11 13 13 12 9 8 9 7 6 8 8 7 7 7 6 6 6 6 5 6 6 5 5 6 6 6 6 5 4 3 4 6 8
4 4 3 3 3 3 3 4 1 5 5 8 14 12 9 11 14 13 10 9 14 22 24 21 18 19 21 20 19 18 18 19 20 19 15 13 14 16 18 21 24 24 23 21 19 16 14 14 14 15 14 12 12 12 13 13 12 12 9 9 10 7 7 8 8 7 7 7 5 5 6 5 4 5 6 6 5 5 5 5 5 5 5 4 3 3 4
5 4 2 1 2 3 2 2 4 4 4 6 13 15 13 14 15 14 13 12 16 21 20 19 20 20 20 21 20 19 19 20 21 20 17 13 12 14 20 25 26 26 25 21 16 15 15 16 17 17 16 13 12 13 13 13 13 11 8 10 11 8 8 8 8 7 7 7 5 5 6 5 4 4 5 5 4 5 5 6 5 4 5 5 5 4 4
4 3 2 3 2 3 4 4 6 5 1 5 8 12 14 14 14 15 18 18 17 17 17 16 20 22 21 20 20 19 18 19 21 20 20 18 16 18 24 27 26 26 25 20 15 14 17 18 18 16 14 13 13 13 12 12 12 10 7 10 10 9 8 9 8 7 7 7 6 5 5 5 5 4 5 5 5 5 5 5 5 5 5 5 5 5 5
1 2 2 3 3 2 4 3 4 3 5 7 6 7 8 7 8 9 11 12 12 9 12 11 11 17 20 21 22 21 18 17 16 16 17 17 18 20 25 27 27 27 25 19 14 16 20 20 18 15 12 12 13 13 11 10 10 8 8 10 10 8 9 9 9 8 8 8 6 6 5 5 5 6 6 6 5 6 6 6 5 5 5 5 5 6 7
3 3 2 0 2 3 5 7 6 5 7 7 5 4 4 3 6 8 8 9 11 10 8 7 3 6 9 12 18 23 23 20 15 13 15 18 19 21 23 25 27 28 23 16 14 18 21 20 17 13 11 12 15 14 11 10 9 9 10 11 10 9 9 10 9 8 9 9 8 7 6 6 6 7 7 6 6 6 7 6 6 6 6 6 6 7 7
4 4 4 3 2 2 4 6 6 5 6 5 5 3 2 3 7 8 7 8 12 15 13 9 8 10 9 8 7 12 21 24 20 17 18 20 21 21 22 24 27 26 21 16 17 21 21 18 15 12 12 14 16 15 11 9 10 10 10 11 10 9 9 9 9 10 10 9 8 8 8 7 7 7 7 7 8 7 7 6 6 6 7 7 6 6 7
5 5 5 4 3 2 1 2 3 5 7 7 5 4 2 3 6 7 8 10 12 14 13 13 15 18 18 13 8 6 9 17 22 22 21 21 22 22 23 25 28 26 20 17 20 22 20 16 14 13 13 15 17 14 11 10 10 10 10 11 10 9 9 10 11 12 11 9 8 8 8 8 8 8 8 7 8 8 7 6 7 8 8 8 7 7 7
6 5 6 5 4 4 2 3 6 7 7 6 5 5 5 6 6 7 11 13 14 13 11 11 13 17 20 19 14 9 6 9 17 24 24 21 22 23 24 27 29 27 20 18 21 22 19 16 15 14 15 17 16 13 11 11 11 11 11 11 11 10 10 11 12 11 10 9 8 9 9 8 9 9 8 8 8 8 7 7 7 8 8 7 7 7 7
7 6 6 6 5 6 5 2 6 9 8 6 6 7 7 7 7 8 10 13 15 12 10 10 11 14 18 20 21 18 11 7 11 22 26 24 21 22 25 28 29 26 19 17 19 19 17 16 16 16 17 17 14 12 11 12 12 11 12 12 11 10 12 12 11 10 10 10 9 9 9 9 9 9 8 8 8 8 7 6 6 8 8 7 7 8 8
Wind_Direction
224 235 239 236 230 227 237 256 274 283 271 243 235 244 249 240 202 172 133 133 182 153 148 151 140 137 144 135 136 139 124 124 125 128 143 147 128 124 129 89 51 11 14 9 349 352 354 343 337 337 334 333 331 328 327 325 325 324 313 296 281 275 269 263 264 261 262 268 268 272 265 244 243 260 263 248 239 234 230 230 227 228 230 231 227 221 219
236 239 242 246 247 239 239 257 275 279 277 267 250 240 245 244 225 183 153 156 188 136 139 144 125 112 106 98 111 123 119 121 129 136 140 128 111 84 51 63 52 25 8 356 348 350 349 341 339 338 335 333 330 328 329 327 325 325 322 309 291 282 275 267 266 265 264 267 270 271 269 259 251 257 265 266 259 245 235 233 232 232 231 231 235 231 219
255 248 242 245 255 259 259 270 274 268 267 272 264 239 244 257 245 214 174 156 148 100 112 119 108 101 107 107 110 117 123 128 132 137 134 121 112 72 58 56 48 28 2 350 353 350 342 339 338 336 335 333 329 327 328 326 326 324 321 313 297 285 276 268 267 268 267 267 267 258 260 265 267 266 266 268 270 264 249 237 231 232 234 232 237 241 230
253 248 245 246 253 261 257 252 261 265 264 273 285 267 234 251 255 231 198 164 134 113 113 118 121 131 143 140 131 122 124 129 134 143 135 121 115 78 66 58 35 26 10 357 356 348 339 339 341 339 338 334 329 329 327 324 323 321 317 313 305 295 285 275 271 269 265 262 259 254 252 256 263 268 268 266 266 270 272 258 238 231 232 231 232 242 244
245 245 251 253 248 251 252 244 249 263 261 261 281 284 239 223 249 244 179 137 118 123 130 130 139 163 170 147 136 133 133 133 136 135 124 121 119 93 74 52 24 22 10 352 347 344 340 341 342 338 335 332 329 330 328 326 326 323 320 315 312 308 299 286 277 269 257 254 253 249 245 245 248 256 259 257 256 260 267 273 268 258 253 244 235 236 245
246 250 255 255 245 242 254 275 272 277 274 245 247 259 254 229 192 124 121 128 131 142 151 141 144 151 106 91 96 111 130 145 146 136 128 121 113 101 87 53 32 16 358 347 339 335 337 341 340 336 334 332 333 335 335 335 338 338 335 330 330 329 319 302 287 272 262 257 254 247 243 242 241 247 254 254 255 265 274 271 258 260 276 280 264 248 244
243 254 256 247 243 251 272 289 237 264 282 278 260 252 250 248 136 124 128 134 138 155 163 140 129 108 91 87 88 96 111 135 135 138 141 130 120 110 82 55 43 15 352 345 336 334 339 341 338 338 341 341 340 341 342 343 347 349 349 350 351 348 340 329 312 288 276 272 262 249 244 243 237 237 251 256 253 263 277 267 244 238 243 252 263 269 265
231 239 245 240 245 259 271 250 231 245 269 272 280 263 238 247 83 124 131 138 145 150 134 118 116 111 107 106 103 100 94 94 113 130 130 113 106 101 87 54 56 57 21 342 334 340 341 342 344 346 347 346 343 341 341 343 346 350 356 359 355 348 342 340 335 320 301 290 277 260 250 245 239 238 247 254 247 243 247 247 242 240 239 237 240 253 269
231 237 238 223 221 217 213 236 227 215 246 236 228 244 223 130 292 162 123 128 143 135 111 103 107 122 137 135 125 121 115 105 103 101 97 99 106 117 117 64 74 78 49 345 345 347 346 353 359 353 346 344 340 339 343 349 356 2 6 3 353 345 340 340 341 340 329 312 297 283 265 252 244 241 240 235 227 230 235 236 235 233 233 236 235 236 244
230 247 246 228 227 218 208 239 229 200 226 225 186 207 234 16 284 201 131 136 147 131 118 112 116 153 193 175 145 137 130 122 112 104 105 124 143 130 74 64 80 67 22 8 5 352 357 7 358 342 340 343 340 347 5 13 13 12 8 359 350 346 346 347 346 347 344 331 310 296 279 257 242 239 238 233 226 224 226 227 230 228 225 228 228 229 233
218 238 244 238 244 229 183 213 237 229 223 205 154 184 221 277 322 235 145 148 150 130 120 124 145 203 226 156 135 143 139 132 126 123 134 153 145 124 102 91 90 74 34 17 4 360 14 13 350 337 345 354 356 10 23 22 17 12 5 359 354 352 352 355 355 355 357 356 334 298 284 263 248 249 253 248 240 229 218 214 220 222 221 222 224 227 228
224 230 242 234 240 266 204 193 215 226 213 193 185 209 201 147 357 301 136 130 129 121 121 140 187 229 238 121 136 146 141 136 134 134 134 132 141 132 98 83 76 68 50 11 355 17 31 18 357 355 5 11 19 26 24 19 18 15 8 2 360 1 3 6 10 10 9 18 27 21 336 264 246 257 265 255 243 230 212 202 211 219 219 216 211 207 198
224 222 244 241 202 257 262 199 196 207 200 202 224 226 163 139 134 129 111 108 113 119 129 167 193 129 95 119 133 139 139 139 140 136 127 133 167 136 87 67 53 66 60 7 3 40 46 31 15 11 16 22 27 30 26 21 22 18 12 9 9 13 17 19 25 27 22 24 39 50 61 83 201 250 258 244 236 224 209 201 205 209 205 193 174 162 157
232 221 233 244 211 198 207 184 180 205 229 212 205 108 129 147 149 130 118 117 122 129 142 167 131 112 111 119 129 142 147 144 142 138 130 129 136 120 106 98 94 80 39 31 50 56 53 45 31 19 25 33 34 33 31 27 26 22 18 21 22 24 26 29 32 34 34 36 41 49 60 73 76 74 80 151 187 174 168 168 170 170 165 154 142 135 136
233 232 229 238 237 191 188 180 175 197 217 142 113 116 136 154 172 151 130 118 114 126 135 129 121 123 127 128 137 147 138 125 120 118 109 76 82 100 104 98 81 46 13 43 61 58 52 52 45 34 39 44 43 43 39 31 30 33 34 40 44 41 39 41 41 39 38 42 46 47 52 63 72 74 77 90 110 123 123 117 113 115 118 118 114 109 103
227 232 232 245 119 170 187 184 169 179 180 123 126 150 163 173 200 176 128 116 116 133 139 136 132 135 139 140 141 135 123 116 110 105 100 79 70 74 68 67 70 57 38 67 78 72 61 56 52 50 55 57 56 55 48 39 40 44 44 49 54 53 53 56 58 56 50 48 50 52 55 62 67 69 72 82 88 91 94 94 90 90 95 99 97 93 86
256 230 88 36 46 181 189 157 111 159 197 150 150 175 185 175 178 155 130 136 145 146 143 140 139 142 146 144 139 130 124 119 109 101 98 89 82 79 73 70 73 71 73 85 87 79 67 58 47 44 53 61 61 55 48 44 48 51 50 51 53 53 54 56 61 64 61 56 53 54 60 65 65 64 68 73 75 75 79 83 82 80 83 87 89 88 85
302 35 61 69 73 217 193 130 110 142 208 183 176 193 187 166 151 138 135 139 142 144 146 146 146 149 149 144 138 133 127 119 112 111 109 101 95 92 90 83 75 73 71 71 73 69 63 60 51 41 41 47 52 53 48 48 51 51 53 57 58 56 55 54 55 58 60 60 56 53 58 62 62 61 66 70 70 69 69 73 76 77 78 81 85 89 87
301 354 8 35 106 13 5 106 113 124 156 171 317 288 189 151 134 131 132 132 136 143 150 149 148 150 149 143 137 132 128 127 129 125 112 101 94 90 90 84 77 79 79 73 72 70 64 60 56 48 43 42 45 49 49 52 55 53 55 62 65 64 63 61 61 61 61 61 60 58 61 66 64 62 64 68 71 71 68 71 77 80 82 85 86 90 92
283 229 33 13 193 135 75 101 112 118 141 87 347 313 194 138 123 116 114 127 140 147 152 150 149 152 150 143 138 135 138 142 136 120 109 107 106 100 97 94 87 85 87 86 84 83 75 66 60 57 55 51 51 52 47 47 54 61 67 72 72 71 71 68 67 68 66 65 65 63 63 66 67 66 66 67 70 70 70 76 85 89 91 93 93 94 97
289 222 123 23 278 119 108 132 144 151 138 75 9 327 130 120 120 115 110 138 158 153 151 152 152 152 148 143 143 143 144 142 131 123 122 122 120 114 106 104 101 97 97 97 94 90 87 78 69 63 57 52 56 60 52 35 36 53 79 87 80 77 76 75 74 74 71 68 68 67 64 63 63 66 71 74 75 76 78 86 97 100 99 99 102 102 102
312 255 299 322 314 261 169 185 180 168 130 93 80 80 103 107 112 118 136 176 175 153 150 156 153 150 148 147 148 148 144 138 132 133 133 130 127 126 121 115 112 108 106 105 102 96 90 85 77 69 57 46 46 56 58 47 38 40 53 71 77 75 73 73 76 79 76 73 72 73 74 72 69 69 72 78 84 87 91 97 104 108 107 106 109 110 108
301 269 303 330 332 322 304 274 211 163 128 105 105 106 101 100 105 145 183 190 168 145 151 159 151 147 150 150 150 149 142 139 141 143 141 136 133 134 130 123 119 115 112 109 104 99 93 88 83 75 61 47 42 49 63 67 60 54 55 62 70 73 70 69 72 77 81 84 83 83 85 84 81 79 78 80 84 88 95 101 104 105 107 108 109 109 109
224 244 334 360 350 345 350 339 336 120 120 125 124 121 132 141 156 200 205 180 153 147 154 155 150 151 154 154 153 146 137 141 149 149 141 137 136 136 134 131 126 121 118 113 106 101 99 93 88 82 70 57 51 54 67 76 75 74 73 73 75 78 78 76 75 76 84 93 96 94 93 90 88 86 84 82 82 85 91 98 102 103 104 106 106 105 105
186 210 9 40 30 15 4 334 334 67 101 141 136 139 166 166 178 205 201 162 150 157 154 148 151 154 155 154 150 143 141 150 155 148 140 139 141 139 138 138 133 127 125 119 111 107 106 100 89 82 74 61 53 52 63 75 78 80 82 81 82 84 81 79 79 80 84 92 98 101 101 99 95 93 91 88 87 88 90 95 99 102 103 102 103 103 102
294 331 330 111 84 41 32 347 303 267 186 104 108 151 174 176 188 199 182 155 158 160 152 150 152 154 156 155 147 144 148 152 150 144 143 147 148 145 146 145 138 133 129 123 118 116 112 103 82 60 67 80 71 62 68 81 86 85 84 82 84 88 88 85 85 84 82 85 94 101 104 106 104 100 98 98 97 94 94 93 93 96 99 101 102 102 104
265 283 290 99 97 53 79 83 298 237 196 67 20 195 178 170 178 185 168 157 161 159 154 152 150 151 154 151 146 147 150 150 148 148 152 155 154 152 152 147 141 139 135 128 126 125 115 100 77 57 71 99 104 91 84 89 96 99 100 96 92 95 99 97 92 91 90 89 93 100 105 108 107 103 99 98 96 95 95 94 92 92 97 102 105 105 107
250 254 260 179 152 204 183 120 149 263 256 184 211 213 191 174 172 171 168 161 159 164 160 151 149 153 154 150 149 150 149 151 155 156 157 158 157 155 153 149 147 146 140 134 133 133 127 120 104 76 59 65 95 106 101 103 109 114 116 114 103 94 95 97 95 96 100 99 97 100 105 108 109 109 106 102 100 100 100 100 99 99 102 106 108 108 109
250 254 264 210 176 195 190 145 145 188 267 240 208 184 183 186 172 161 165 156 148 183 177 153 151 157 155 152 154 153 153 160 163 160 158 159 156 154 155 154 152 148 143 141 143 141 136 133 121 95 44 18 42 92 110 106 91 77 73 90 102 97 92 95 98 97 99 105 106 103 103 106 108 111 113 114 113 112 110 109 110 110 110 112 112 110 111
237 233 247 242 214 202 189 167 167 175 190 214 206 183 186 189 171 165 182 164 151 187 190 161 157 162 158 157 159 158 160 165 160 156 159 159 154 154 157 155 153 150 148 148 148 144 139 134 122 101 52 32 40 56 72 74 65 59 66 81 92 96 93 93 100 103 104 110 115 115 115 116 114 111 113 114 115 117 118 119 121 121 121 120 118 117 120
244 231 226 234 243 229 197 174 192 191 179 190 200 191 186 179 164 167 182 155 141 185 192 174 167 165 161 160 161 162 164 161 154 155 161 159 155 157 159 158 157 155 153 152 150 145 141 137 126 105 74 60 50 47 65 72 52 52 92 96 94 102 109 108 117 131 135 134 131 125 123 122 117 114 115 117 119 124 127 129 130 129 127 125 124 125 133
247 245 233 224 235 244 225 191 197 205 180 181 200 201 182 163 158 148 123 81 42 4 318 225 185 168 163 162 161 163 164 157 153 157 159 156 157 160 160 161 160 155 153 153 150 146 144 139 131 127 115 86 59 52 84 84 27 22 93 117 112 117 124 121 124 137 145 151 146 134 126 124 123 122 125 131 137 142 141 139 138 136 131 127 126 133 144
240 244 243 230 222 233 234 214 205 207 191 181 198 211 189 161 150 130 122 125 89 41 327 272 220 169 159 161 158 156 157 155 154 158 156 155 160 163 162 163 160 153 153 154 152 151 152 147 140 138 140 126 87 77 116 137 12 26 73 122 124 118 121 130 135 130 129 135 135 128 131 141 143 138 136 140 145 145 140 138 139 136 130 128 131 141 155
247 248 254 253 242 243 244 218 197 198 188 168 187 205 188 167 155 144 141 139 119 116 254 268 246 177 161 164 159 154 155 158 156 151 148 152 162 165 163 161 156 152 153 154 154 157 157 155 153 150 147 150 143 122 131 160 69 50 71 103 121 126 134 149 169 173 153 135 120 106 115 137 141 143 150 154 153 145 141 142 143 137 131 131 137 150 167
246 251 257 260 255 252 253 233 207 196 182 170 189 198 180 169 166 154 152 169 161 152 194 260 255 201 168 164 160 159 164 165 154 148 152 161 167 166 161 158 155 154 155 157 160 160 158 157 160 158 154 159 159 144 140 160 168 152 128 128 141 149 145 173 229 230 148 138 145 151 152 140 121 131 151 156 151 152 156 154 144 136 132 133 139 154 173
242 246 253 261 261 256 254 250 241 219 169 155 186 231 188 173 182 177 174 186 178 160 176 241 244 210 174 168 169 169 168 161 151 152 160 165 165 161 158 156 155 156 159 163 163 159 155 157 159 158 157 163 166 165 163 162 164 169 163 155 161 170 178 218 250 250 117 129 153 149 145 150 137 122 119 121 138 156 166 155 142 139 138 137 141 151 166
262 257 253 249 247 248 246 238 239 236 174 153 175 216 213 193 193 190 184 187 178 160 173 232 236 206 174 173 174 168 162 158 156 160 164 161 157 157 156 156 159 161 162 165 164 161 160 164 164 161 161 166 170 173 174 167 160 159 155 151 167 188 201 219 230 147 129 163 138 116 128 160 169 157 164 177 175 180 184 158 148 148 145 143 147 154 159
270 270 272 270 257 253 251 239 235 238 202 167 175 194 197 190 189 188 187 191 177 159 176 229 231 198 170 172 172 161 155 154 152 156 162 162 159 157 157 160 165 167 167 166 164 163 167 172 173 171 168 172 178 179 177 174 166 159 164 176 193 203 201 194 172 153 169 186 122 105 145 193 190 171 181 190 181 174 180 184 166 153 148 150 159 162 159
280 271 273 273 265 261 258 244 234 238 223 184 171 176 177 175 177 177 188 197 177 159 181 231 228 189 166 174 172 160 157 156 151 153 163 168 164 159 161 168 171 171 169 166 165 168 173 176 176 174 173 178 186 185 182 180 174 167 177 192 197 197 200 194 179 169 173 169 156 165 193 201 192 190 212 216 188 157 152 177 193 169 159 159 162 161 157
295 290 285 277 273 272 264 248 241 239 222 188 168 166 167 168 169 172 189 196 177 163 192 230 223 184 167 178 172 157 156 159 154 153 163 170 165 157 160 172 176 174 169 164 165 172 177 174 170 171 175 182 187 182 179 181 181 183 195 199 190 190 201 197 179 174 176 175 183 192 194 195 195 194 204 215 198 154 151 173 189 192 180 161 147 142 153
260 291 310 293 284 282 277 268 261 247 207 168 160 161 164 166 169 178 196 193 173 170 205 225 214 181 170 177 170 158 156 157 155 157 165 170 166 161 165 175 173 168 165 166 168 172 172 169 167 169 173 179 181 175 173 180 188 202 217 214 195 187 187 178 172 176 172 168 182 191 183 181 190 185 183 189 182 163 181 189 189 203 202 164 147 146 155
257 250 236 244 258 270 290 307 315 321 331 166 158 157 164 175 179 184 197 191 174 183 210 215 200 177 172 172 164 156 156 156 157 163 168 169 168 169 171 171 169 167 167 168 168 166 166 169 172 171 170 173 176 170 167 177 193 214 225 209 187 178 171 167 174 175 160 163 189 192 168 163 179 179 173 180 176 175 195 196 191 218 241 180 161 164 167
274 271 253 248 253 263 292 322 21 98 135 279 254 191 173 183 190 189 190 193 197 207 213 206 185 170 169 167 158 154 157 159 160 162 163 167 175 178 171 162 163 168 170 166 162 162 168 173 174 172 171 172 175 175 173 178 196 218 219 186 169 173 173 169 173 169 159 170 192 178 157 167 189 179 173 186 187 179 184 186 185 203 229 217 179 179 174
245 260 262 271 293 307 311 314 12 110 143 242 255 239 194 184 197 198 190 201 219 219 210 195 174 167 168 166 160 159 161 162 162 162 160 166 180 181 169 160 162 168 170 165 162 167 175 175 171 172 170 164 165 174 177 180 198 222 215 173 161 174 179 170 167 166 164 171 178 161 157 176 186 169 175 197 195 174 176 187 190 195 201 200 202 200 179
213 243 254 243 289 307 316 331 350 32 108 207 241 238 209 191 197 200 193 204 229 232 216 187 168 168 172 170 165 163 163 163 164 166 167 171 177 172 165 163 165 169 170 169 169 173 177 173 170 172 173 169 167 172 174 181 202 223 206 163 159 177 182 168 164 167 166 165 159 149 156 175 181 168 176 190 180 164 176 191 192 185 183 183 190 195 179
190 220 205 171 205 293 317 352 2 355 323 199 223 229 214 194 187 192 197 200 214 236 238 208 177 170 172 171 164 159 158 161 166 171 172 171 169 165 163 165 169 171 171 172 173 172 171 169 168 170 174 178 180 180 180 189 206 213 185 157 162 180 178 167 166 169 165 161 157 154 160 178 187 171 160 161 159 156 160 163 161 164 171 174 173 168 160
256 236 197 161 162 248 295 334 4 316 250 224 213 225 229 204 167 171 191 190 186 220 264 258 197 174 175 173 166 160 157 156 161 169 171 167 162 160 162 166 170 170 170 171 170 166 165 165 167 169 174 180 180 180 184 194 200 192 168 161 170 178 172 165 167 166 159 155 153 152 155 162 160 147 143 149 153 147 145 149 153 156 159 161 158 156 156
318 326 319 267 171 185 190 179 170 196 230 234 223 229 251 224 156 157 171 174 174 193 246 282 254 197 199 189 173 166 162 159 157 161 166 167 163 158 160 166 170 169 166 165 164 164 165 166 168 170 175 178 178 179 186 195 192 178 167 168 173 172 166 164 165 163 157 151 148 150 154 152 144 142 149 157 155 149 154 162 161 151 145 144 146 150 155
304 303 300 295 285 228 174 160 161 180 204 217 227 238 219 136 140 154 167 179 190 201 209 208 193 193 211 233 221 179 167 167 168 165 163 164 164 160 161 168 172 168 161 156 158 162 165 166 168 171 175 176 177 181 191 195 185 172 166 169 171 168 167 170 170 162 153 149 152 161 166 161 154 155 159 158 154 156 161 161 153 153 159 161 158 158 160
306 302 300 297 288 268 211 147 162 192 202 203 210 224 203 146 142 151 159 174 194 204 201 192 185 181 180 194 235 246 187 171 170 165 161 160 161 162 165 169 170 166 159 153 156 160 162 162 165 171 174 173 176 185 193 190 178 171 168 169 168 164 160 157 153 148 148 152 161 166 164 156 154 156 155 149 149 155 153 141 138 148 156 156 156 162 166
294 287 286 290 292 287 271 161 153 174 206 225 225 210 196 183 168 156 159 174 190 194 180 173 183 184 177 175 186 207 216 185 170 164 160 157 157 161 167 169 167 165 160 154 155 159 161 161 165 171 172 172 178 188 190 180 173 171 168 169 170 166 157 147 142 144 153 161 164 163 160 154 152 153 152 149 153 156 149 136 140 153 158 158 161 167 167
281 279 284 288 290 290 286 236 155 154 170 205 241 245 224 191 164 155 170 187 196 192 171 162 178 188 185 179 173 173 182 199 177 164 159 155 153 158 165 167 167 165 161 153 153 158 163 165 169 173 174 174 180 188 182 174 172 170 167 168 170 166 159 156 157 161 166 167 167 165 161 156 156 160 161 156 156 159 153 145 155 172 178 175 168 164 159
Height
729 726 725 724 726 729 728 727 728 726 724 727 733 738 735 735 752 766 756 750 757 755 751 753 751 749 752 752 752 754 754 757 760 761 764 764 764 765 764 765 766 766 766 766 766 767 767 768 769 768 768 768 767 768 767 767 767 766 766 765 765 765 766 766 766 767 768 769 770 772 772 769 769 771 772 773 774 775 776 776 778 779 780 781 782 783 785
727 723 723 721 721 723 722 723 726 727 725 724 725 728 727 729 739 744 745 751 752 745 746 749 745 745 748 748 750 753 755 759 761 762 764 765 765 765 764 765 766 766 767 766 766 767 768 768 769 768 768 768 767 768 767 767 767 766 766 766 765 765 765 765 766 766 766 768 769 769 770 770 771 771 771 772 773 774 775 776 777 778 779 780 781 782 784
732 724 722 722 722 723 725 728 728 726 726 724 722 725 726 729 735 736 738 751 754 744 740 744 745 746 749 751 754 756 758 760 762 763 765 765 766 766 765 766 766 766 767 767 767 768 768 769 769 768 769 768 768 768 767 767 766 766 766 765 764 764 764 764 765 766 766 767 768 768 768 770 771 771 771 772 772 773 774 775 776 777 778 780 781 782 783
743 729 726 727 723 724 731 735 732 728 728 729 726 725 726 731 737 739 743 755 759 748 742 745 748 748 750 754 756 757 759 760 761 764 765 765 766 766 766 767 767 767 768 768 768 769 769 769 769 768 768 768 768 768 767 767 766 766 765 764 764 764 764 764 764 765 766 767 767 766 765 767 769 770 771 771 771 772 773 775 776 776 778 779 780 782 782
747 732 729 727 727 742 748 735 727 727 727 729 729 725 723 725 729 739 750 755 753 746 745 749 751 749 750 752 753 757 760 760 762 763 763 765 765 765 766 767 766 767 768 768 769 769 769 769 769 769 769 768 768 768 767 767 766 765 765 764 764 763 762 763 762 763 765 764 764 764 764 765 767 767 768 769 769 771 772 773 775 775 777 778 779 781 781
748 737 728 730 744 762 753 724 715 722 724 727 732 730 724 721 723 733 743 746 744 743 745 749 751 749 749 751 751 753 756 759 762 763 762 764 765 765 766 766 766 767 768 769 770 770 770 770 769 769 769 769 768 768 768 767 766 766 765 764 764 762 761 761 761 761 762 761 761 762 762 763 764 764 764 766 768 770 771 772 772 773 775 777 778 779 780
745 737 737 755 768 757 731 714 713 717 717 720 725 726 721 719 723 730 736 739 742 741 740 742 746 748 748 751 752 753 754 755 759 762 763 763 764 765 766 766 766 768 768 770 771 770 770 770 769 770 769 769 769 768 768 767 766 766 765 764 763 762 761 760 759 759 759 759 759 760 761 761 762 761 763 765 767 770 773 772 771 770 771 773 775 777 779
742 744 751 767 763 737 720 720 718 716 719 722 728 733 728 720 724 730 735 738 738 737 737 739 743 747 748 751 754 755 755 755 756 760 762 762 764 765 765 765 766 767 769 770 770 770 770 770 770 770 769 769 769 768 768 767 767 766 766 765 764 763 761 760 759 758 758 758 758 759 760 760 760 761 762 764 766 768 770 771 771 770 770 771 773 775 778
741 748 750 750 747 740 736 732 722 718 724 724 730 742 737 723 721 726 732 739 738 737 739 742 744 747 751 757 760 757 756 756 756 758 760 762 764 764 763 765 765 767 769 770 770 770 770 770 770 770 770 770 769 769 768 768 767 767 766 766 765 764 763 761 759 758 757 756 757 758 759 759 759 760 761 762 763 765 766 768 769 770 770 770 771 774 776
736 746 751 751 758 759 747 733 719 712 715 713 717 736 742 728 721 721 728 738 740 738 742 746 747 752 758 765 766 760 758 758 757 759 761 761 762 763 763 765 765 767 769 769 769 770 770 770 771 770 770 770 769 769 768 768 768 768 768 768 767 765 764 762 760 759 757 756 756 756 758 758 759 758 757 758 760 761 763 765 766 768 768 769 770 772 774
738 748 758 759 761 753 736 727 717 709 710 707 714 741 752 735 723 722 725 734 738 739 744 747 750 757 765 768 766 760 759 758 758 760 762 760 761 762 763 765 766 768 769 769 769 770 770 771 771 770 770 770 769 769 769 769 770 769 769 769 767 766 765 763 761 759 757 756 755 754 755 756 756 755 754 756 758 759 761 763 765 766 767 767 769 770 771
740 746 753 751 749 739 723 719 717 708 704 706 729 764 764 736 725 725 725 732 737 738 744 748 751 757 762 763 760 756 756 758 757 759 761 761 761 762 762 765 766 767 768 769 768 769 770 771 771 771 771 770 770 770 770 770 771 770 770 769 768 767 765 763 762 760 757 756 755 753 753 754 754 753 753 754 756 757 758 761 763 764 765 766 768 769 769
737 745 751 745 740 731 717 713 710 704 706 722 748 765 750 728 726 725 723 731 737 738 744 748 750 753 752 751 752 752 754 757 758 758 760 761 761 762 763 765 766 766 768 768 768 769 770 771 772 772 772 771 771 772 771 771 771 770 770 769 768 767 766 764 763 761 759 758 756 755 754 754 753 753 753 753 754 755 756 757 759 761 764 765 766 767 768
735 738 744 746 741 724 709 708 707 705 722 744 749 739 726 722 725 723 724 732 735 736 742 745 747 749 747 747 750 752 753 756 757 758 760 760 761 762 764 765 766 766 766 766 767 769 770 771 773 773 773 773 772 772 772 772 772 771 771 770 769 768 766 765 764 763 761 759 758 757 756 755 754 754 753 754 754 755 756 756 757 759 762 763 764 766 768
736 740 743 752 749 724 705 710 716 717 730 740 733 724 723 723 721 721 726 731 732 736 743 744 745 748 748 749 751 751 752 755 756 758 760 760 761 762 763 765 766 767 767 767 768 771 771 772 773 774 774 773 773 773 773 772 772 772 771 770 769 768 767 767 765 764 763 762 760 759 758 757 756 756 756 755 755 757 758 758 759 760 761 762 764 766 768
734 745 744 738 730 712 701 711 722 721 719 719 719 723 726 723 720 722 726 730 732 736 741 744 746 748 749 750 751 752 754 756 757 759 761 761 763 763 764 766 767 768 769 768 770 772 772 773 774 774 773 774 773 773 773 773 773 772 771 771 770 769 769 768 766 766 766 765 764 763 762 761 760 760 760 759 759 760 761 761 762 762 762 764 767 769 771
723 729 728 718 710 703 699 705 713 713 710 709 713 719 722 722 721 720 723 730 732 733 738 743 745 748 749 750 751 753 756 757 759 761 763 763 765 766 767 768 769 769 769 769 770 772 773 773 774 774 773 774 774 774 774 773 773 772 772 772 771 771 770 769 768 768 768 768 767 766 765 765 764 764 764 763 763 764 764 764 764 765 765 766 769 771 774
720 718 716 712 711 709 703 703 707 710 710 709 709 713 717 719 719 719 723 728 730 732 738 742 745 748 748 749 752 754 756 758 761 763 764 765 766 767 769 770 770 769 770 770 772 773 774 775 775 775 775 775 775 774 774 774 773 773 773 772 772 772 772 771 771 771 770 771 771 770 769 768 768 767 767 767 766 767 767 766 766 766 767 769 772 774 776
731 730 722 715 715 713 708 708 709 709 710 710 710 713 716 716 718 720 723 725 729 733 736 740 744 747 746 749 753 755 757 760 762 762 765 767 768 769 770 770 771 771 772 773 774 775 776 777 777 777 777 776 776 776 775 774 774 774 774 773 773 773 773 773 773 773 774 774 774 773 773 772 771 771 771 770 770 770 770 770 770 771 772 774 777 778 779
733 732 726 719 716 712 710 711 713 713 714 714 713 713 714 715 718 722 723 726 730 733 736 739 743 744 746 749 753 755 758 760 761 763 766 768 770 771 772 772 773 773 774 775 777 778 779 779 778 778 778 777 777 777 776 776 776 775 775 775 774 774 774 775 776 776 777 778 777 777 777 776 775 775 775 775 775 775 776 777 776 777 778 780 782 784 784
734 729 729 728 723 720 716 714 714 715 715 715 716 716 715 717 721 724 725 728 731 733 735 738 740 744 746 748 751 755 758 759 761 764 767 769 771 773 773 774 774 775 776 777 778 779 780 780 779 779 778 778 778 777 777 777 776 776 776 776 775 775 776 776 777 778 780 781 781 781 782 781 780 780 780 780 780 781 782 782 782 782 783 784 786 788 788
745 740 739 737 735 735 728 717 713 715 715 716 719 721 721 722 725 728 732 734 733 733 735 736 739 743 746 747 750 754 756 758 762 764 767 769 772 773 774 775 776 776 778 778 779 780 780 780 780 780 779 779 779 778 778 778 777 777 776 776 776 777 777 778 779 780 781 783 784 785 786 786 785 785 785 785 785 785 786 787 787 787 787 789 790 790 790
746 739 735 733 734 736 728 717 712 713 714 717 721 723 725 727 729 734 739 738 735 734 735 735 738 742 744 746 749 752 755 758 762 764 767 769 771 773 774 775 776 777 779 779 779 780 781 781 781 781 780 780 779 779 779 779 779 779 778 778 778 779 780 781 782 782 783 786 787 788 789 790 789 790 790 790 790 791 791 792 792 792 792 794 795 795 794
737 732 729 729 732 733 728 721 717 714 715 719 723 724 726 729 732 736 738 735 733 735 735 735 737 740 743 745 748 751 755 759 761 764 767 769 771 773 775 775 776 778 779 780 780 780 781 782 782 781 782 781 780 779 780 780 781 781 781 781 781 782 783 784 784 785 786 787 788 790 791 792 793 793 793 793 794 796 797 797 797 798 798 799 800 801 800
733 730 727 728 730 731 729 726 722 719 718 720 724 726 728 730 734 736 734 732 732 733 734 735 737 740 742 744 747 751 755 758 761 764 766 769 771 773 774 776 777 778 779 780 781 781 782 783 783 782 783 783 782 782 781 781 782 783 783 783 784 785 786 786 787 788 788 789 790 791 793 794 795 796 796 797 797 799 801 802 802 802 803 804 805 805 805
729 728 726 727 729 729 729 731 730 726 722 722 725 727 729 732 735 735 733 732 732 731 732 734 737 739 742 744 747 751 755 758 761 763 766 769 771 772 774 776 777 778 779 780 781 782 783 783 783 783 783 783 784 784 783 783 784 784 785 785 786 787 788 789 789 790 790 791 792 793 794 795 796 797 798 800 801 802 804 805 806 807 807 808 809 809 809
726 726 727 731 734 732 730 732 733 730 726 728 730 728 728 732 736 735 734 733 732 732 733 734 736 739 742 745 748 752 755 758 761 764 766 769 770 772 774 776 776 778 780 780 782 783 783 783 783 783 782 783 784 784 785 785 785 785 786 787 788 788 789 790 791 791 792 793 794 794 795 797 798 799 801 802 803 804 806 807 809 810 811 811 812 812 812
725 723 724 730 736 734 728 728 729 728 727 731 733 730 729 732 735 736 737 736 734 734 734 735 737 740 742 745 748 752 755 758 761 763 765 767 769 771 774 775 777 778 779 781 782 783 783 784 784 783 783 784 784 785 786 786 785 786 787 787 788 789 790 791 792 793 794 795 795 796 797 798 799 801 802 803 805 807 808 809 811 812 813 814 815 815 815
724 722 722 724 728 728 726 726 729 731 731 731 730 729 731 733 734 736 736 734 734 735 735 736 738 740 742 745 748 751 754 757 759 761 764 766 768 771 773 775 777 778 779 781 782 783 784 784 784 784 785 785 784 785 786 785 785 786 787 787 789 790 792 793 794 795 795 796 797 797 798 799 800 802 803 805 807 808 810 811 813 814 815 816 816 817 817
723 722 722 723 723 724 726 729 730 733 736 736 732 731 731 732 733 736 735 733 734 737 737 738 739 740 742 745 748 750 753 756 758 761 764 765 768 770 772 774 776 778 779 781 782 783 784 785 785 786 787 786 785 785 785 785 786 788 788 789 790 791 793 795 795 796 797 797 798 799 799 800 801 803 804 805 807 809 811 812 813 815 816 817 817 818 818
722 721 722 723 722 722 725 728 728 730 732 733 732 732 731 731 733 736 736 734 734 736 737 738 739 741 742 745 748 751 753 755 758 761 763 765 768 770 772 774 775 777 779 780 782 783 784 785 786 787 787 786 786 786 785 786 787 789 790 791 792 793 795 796 796 797 798 798 798 799 800 801 802 803 805 807 808 810 811 812 814 815 816 817 818 819 819
724 723 722 724 724 724 725 727 728 730 730 731 732 732 732 733 734 735 736 736 736 739 743 743 740 740 742 745 748 751 753 755 758 761 763 765 768 770 771 774 775 777 779 780 782 783 784 785 786 787 787 788 788 787 787 788 789 789 791 792 794 795 796 796 796 797 797 798 798 799 800 801 802 804 805 807 808 809 810 812 813 814 815 817 818 819 820
726 726 725 724 724 725 726 726 727 729 730 730 731 731 732 733 733 734 736 736 735 741 750 751 744 740 742 745 748 751 754 756 759 761 763 766 768 770 772 774 775 777 779 780 781 783 784 785 786 787 788 789 789 789 789 790 790 791 792 792 794 796 796 796 796 797 797 798 798 798 799 801 802 803 805 806 807 808 809 811 812 814 815 817 818 819 820
722 723 722 720 720 722 724 724 725 727 728 729 730 730 731 732 732 734 736 736 734 739 750 754 748 741 741 745 747 751 754 756 759 762 763 765 767 769 771 773 775 777 779 780 782 783 784 785 786 787 788 789 790 790 790 790 791 793 793 794 795 796 797 797 797 796 797 798 799 799 800 801 801 803 804 805 806 808 809 810 812 813 815 817 818 819 820
717 717 716 716 717 718 719 719 721 723 725 728 729 729 729 731 732 733 735 735 733 734 743 752 752 744 741 743 747 749 753 756 759 761 762 763 766 768 770 772 775 777 778 780 782 782 783 785 786 787 788 789 790 790 791 791 793 794 794 795 796 797 797 797 797 796 797 798 799 800 801 801 802 803 803 804 805 807 808 809 810 812 814 816 817 818 820
714 716 716 716 716 717 717 718 718 720 723 727 727 727 729 731 732 732 733 734 732 732 739 750 751 744 739 742 745 747 752 756 758 760 761 763 766 768 769 771 774 776 778 780 781 782 783 784 785 786 788 788 789 790 791 792 793 794 795 795 796 797 797 797 797 796 797 798 799 800 801 802 803 804 804 805 806 806 807 808 810 811 813 815 816 818 819
715 715 715 716 716 716 716 717 717 718 722 725 727 727 728 729 730 730 731 732 731 730 735 746 748 741 738 741 743 746 751 755 757 759 761 763 765 767 769 771 773 775 777 779 780 781 783 783 784 786 787 788 789 790 791 792 793 794 794 795 796 797 797 797 797 797 798 799 800 800 801 802 804 804 805 806 806 807 807 808 809 811 813 814 816 818 819
716 715 715 715 715 715 715 715 716 717 719 723 725 726 726 727 728 728 730 731 729 727 733 744 745 739 737 740 743 746 751 754 755 758 760 762 763 766 767 770 772 774 775 777 779 780 782 782 784 785 786 787 789 790 790 792 793 793 794 796 796 796 796 797 797 798 799 800 800 801 802 803 803 804 805 806 806 807 808 809 809 811 812 814 816 817 818
716 716 716 715 714 714 714 714 714 715 716 718 721 723 723 725 726 727 729 731 727 725 732 742 743 737 736 740 741 744 749 752 754 757 759 760 762 764 767 769 771 773 774 776 778 779 780 782 783 784 786 786 788 789 789 791 792 793 794 795 796 796 796 797 797 798 799 800 801 802 802 803 804 804 805 805 805 806 808 809 810 811 812 813 815 816 817
716 716 715 714 714 714 714 713 713 713 713 715 717 718 720 722 724 725 727 728 724 723 733 742 741 735 735 738 740 743 747 750 753 756 758 760 762 764 766 769 771 772 773 775 776 778 779 781 782 784 785 786 787 787 788 790 791 792 793 794 795 796 796 797 797 799 800 800 801 802 802 803 803 804 805 805 805 806 808 809 810 811 812 812 814 816 817
715 715 715 714 714 713 712 712 711 711 711 712 714 715 717 719 721 722 724 723 719 722 733 741 737 732 733 736 739 742 746 749 752 756 758 759 761 763 765 767 769 771 772 774 775 776 778 780 782 783 784 785 786 787 787 789 791 791 792 792 793 794 795 796 797 798 799 800 801 801 802 803 803 804 805 806 806 807 809 809 809 810 811 811 813 815 817
716 716 715 714 713 712 712 713 714 715 717 716 715 715 716 716 717 719 721 721 720 724 733 736 732 730 732 735 738 741 745 748 751 754 756 756 758 760 762 764 767 769 770 772 774 776 778 779 781 782 783 784 785 786 787 789 790 790 790 791 792 793 794 796 797 798 799 800 801 801 802 803 804 805 806 807 808 809 809 810 810 811 811 811 812 814 815
715 715 714 713 713 712 712 712 715 719 722 720 717 716 717 716 715 718 720 721 723 728 732 731 728 728 731 734 736 740 743 746 748 751 752 754 756 758 759 762 764 767 769 771 773 775 777 778 779 780 782 783 784 785 787 789 790 789 790 790 792 793 794 796 797 798 799 800 800 801 802 804 805 805 806 807 808 809 810 810 811 811 812 812 813 814 815
713 713 713 713 713 713 713 712 713 717 722 722 719 718 717 715 715 716 718 721 727 732 731 727 725 726 729 732 734 738 740 742 745 748 750 752 755 757 759 760 763 765 768 770 772 774 776 777 778 779 780 782 783 785 787 788 789 789 788 790 792 793 794 795 797 798 799 800 801 801 803 804 805 806 807 807 808 809 810 811 811 812 813 813 814 815 815
712 711 711 712 712 712 713 713 714 716 719 722 723 722 718 715 715 715 717 721 729 734 731 725 723 725 727 729 732 735 738 740 743 745 746 749 752 755 757 759 762 764 766 769 771 773 774 775 776 778 780 781 783 785 786 788 788 788 788 789 791 793 794 795 797 798 799 800 801 802 804 805 805 806 807 808 808 809 810 811 812 812 813 814 815 816 816
711 710 711 712 712 712 713 714 715 714 715 718 723 723 720 716 716 717 719 722 728 732 731 727 724 724 726 728 731 734 737 739 742 744 745 747 749 752 755 757 760 763 765 768 770 771 772 773 775 778 779 781 783 784 786 787 787 787 787 789 791 793 794 796 797 798 800 801 802 803 804 805 806 807 807 808 809 810 811 812 812 813 814 815 816 816 818
709 709 710 711 711 711 713 715 717 717 716 717 718 718 717 717 719 721 724 726 727 729 732 731 727 726 726 728 729 732 735 738 741 744 746 747 749 751 754 756 759 761 764 767 768 769 770 772 775 777 779 780 782 784 785 786 786 786 787 789 791 793 794 796 797 799 800 801 803 804 805 806 806 807 808 809 810 811 812 812 813 814 815 816 816 817 819
708 708 709 710 710 711 713 717 719 720 719 717 716 715 716 718 720 723 726 726 724 725 728 730 730 730 730 730 729 730 732 734 737 740 743 746 748 751 753 755 758 760 763 765 766 768 770 772 774 776 778 780 782 783 785 785 786 786 788 790 791 793 794 796 797 799 800 802 803 804 805 806 807 808 809 810 811 812 812 813 814 815 815 816 817 818 819
708 708 707 708 708 709 710 713 716 716 715 715 715 716 716 718 720 721 722 721 721 722 725 726 728 730 732 733 732 732 732 732 734 737 740 743 746 749 751 754 757 760 763 764 766 768 770 772 774 776 778 779 781 783 784 785 785 786 788 790 791 793 794 796 797 799 800 802 803 805 805 806 807 808 809 810 811 812 813 813 814 815 816 817 818 819 820
707 707 707 706 707 707 708 710 712 713 712 713 714 715 715 716 718 720 722 723 724 725 725 725 726 728 730 732 734 735 735 734 734 736 739 742 745 747 750 753 756 759 762 764 765 768 770 772 773 775 777 779 781 783 783 784 785 786 788 789 791 793 794 795 797 798 800 802 803 804 805 806 807 808 809 810 811 812 813 814 814 815 816 817 818 819 820
707 706 706 705 706 706 707 708 710 711 710 711 712 713 714 715 717 719 721 723 724 723 723 724 725 727 728 729 732 735 738 739 737 737 739 742 744 746 749 752 755 759 761 763 765 767 770 772 773 775 777 779 781 782 783 784 785 786 788 790 791 793 794 795 797 799 800 802 803 804 805 806 807 808 809 810 811 812 813 814 815 816 817 818 818 819 820
706 705 705 705 705 705 705 707 709 710 711 711 711 711 711 714 717 719 719 719 720 720 720 722 725 727 728 729 730 732 737 741 741 739 740 742 745 747 749 752 755 758 760 763 765 767 770 771 773 775 776 778 780 781 782 783 785 786 788 790 791 792 794 796 797 799 801 802 803 804 805 806 807 808 809 810 811 812 813 814 815 816 817 817 818 819 820